Time,TemperatureF,DewpointF,PressureIn,WindDirection,WindDirectionDegrees,WindSpeedMPH,WindSpeedGustMPH,Humidity,HourlyPrecipIn,Conditions,Clouds,dailyrainin,SoftwareType,DateUTC
2013-11-26 00:00:00,31.6,26.4,30.29,NW,320,0.0,0.0,81,0.00,,,0.00,Wunderground v.1.15,2013-11-26 05:00:00,
2013-11-26 00:05:00,31.6,27.0,30.28,NW,320,0.0,0.0,83,0.00,,,0.00,Wunderground v.1.15,2013-11-26 05:05:00,
2013-11-26 00:10:00,31.7,27.1,30.27,NW,320,0.0,0.0,83,0.00,,,0.00,Wunderground v.1.15,2013-11-26 05:10:00,
2013-11-26 00:15:00,31.7,27.1,30.27,NW,320,0.0,0.0,83,0.00,,,0.00,Wunderground v.1.15,2013-11-26 05:15:00,
2013-11-26 00:25:00,31.6,26.7,30.27,NW,320,0.0,0.0,82,0.00,,,0.00,Wunderground v.1.15,2013-11-26 05:25:00,
2013-11-26 00:30:00,31.7,26.8,30.27,NW,320,0.0,0.0,82,0.00,,,0.00,Wunderground v.1.15,2013-11-26 05:30:00,
2013-11-26 00:35:00,31.7,27.4,30.27,NW,320,0.0,0.0,84,0.00,,,0.00,Wunderground v.1.15,2013-11-26 05:35:00,
2013-11-26 00:40:00,31.8,27.2,30.27,NW,320,0.0,0.0,83,0.00,,,0.00,Wunderground v.1.15,2013-11-26 05:40:00,
2013-11-26 00:45:00,31.8,27.5,30.27,NW,320,0.0,0.0,84,0.00,,,0.00,Wunderground v.1.15,2013-11-26 05:45:00,
2013-11-26 00:50:00,31.8,27.8,30.27,NW,320,0.0,0.0,85,0.00,,,0.00,Wunderground v.1.15,2013-11-26 05:50:00,
2013-11-26 00:55:00,31.7,27.7,30.27,NW,320,0.0,0.0,85,0.00,,,0.00,Wunderground v.1.15,2013-11-26 05:55:00,
2013-11-26 01:00:00,31.7,27.7,30.27,NW,320,0.0,0.0,85,0.00,,,0.00,Wunderground v.1.15,2013-11-26 06:00:00,
2013-11-26 01:05:00,31.7,28.0,30.26,NW,320,0.0,0.0,86,0.00,,,0.00,Wunderground v.1.15,2013-11-26 06:05:00,
2013-11-26 01:10:00,31.7,28.0,30.25,NW,320,0.0,0.0,86,0.00,,,0.00,Wunderground v.1.15,2013-11-26 06:10:00,
2013-11-26 01:15:00,31.7,28.0,30.25,NW,320,0.0,0.0,86,0.00,,,0.00,Wunderground v.1.15,2013-11-26 06:15:00,
2013-11-26 01:20:00,31.8,28.4,30.25,NW,320,0.0,0.0,87,0.00,,,0.00,Wunderground v.1.15,2013-11-26 06:20:00,
2013-11-26 01:25:00,31.9,28.5,30.24,NW,320,0.0,0.0,87,0.00,,,0.00,Wunderground v.1.15,2013-11-26 06:25:00,
2013-11-26 01:30:00,31.9,28.8,30.24,NW,320,0.0,0.0,88,0.00,,,0.00,Wunderground v.1.15,2013-11-26 06:30:00,
2013-11-26 01:40:00,31.9,28.5,30.24,NW,320,0.0,0.0,87,0.00,,,0.01,Wunderground v.1.15,2013-11-26 06:40:00,
2013-11-26 01:45:00,32.0,28.3,30.23,NW,320,0.0,0.0,86,0.00,,,0.01,Wunderground v.1.15,2013-11-26 06:45:00,
2013-11-26 01:50:00,32.0,27.7,30.23,NW,320,0.0,0.0,84,0.00,,,0.01,Wunderground v.1.15,2013-11-26 06:50:00,
2013-11-26 01:55:00,32.0,27.7,30.23,NW,320,0.0,0.0,84,0.00,,,0.01,Wunderground v.1.15,2013-11-26 06:55:00,
2013-11-26 02:00:00,32.1,28.1,30.23,NW,320,0.0,0.0,85,0.00,,,0.01,Wunderground v.1.15,2013-11-26 07:00:00,
2013-11-26 02:05:00,32.1,28.1,30.23,NW,320,0.0,0.0,85,0.00,,,0.01,Wunderground v.1.15,2013-11-26 07:05:00,
2013-11-26 02:10:00,32.1,28.1,30.23,NW,320,0.0,0.0,85,0.00,,,0.01,Wunderground v.1.15,2013-11-26 07:10:00,
2013-11-26 02:20:00,32.2,28.8,30.22,NW,320,0.0,0.0,87,0.00,,,0.01,Wunderground v.1.15,2013-11-26 07:20:00,
2013-11-26 02:25:00,32.2,28.5,30.22,NW,320,0.0,0.0,86,0.00,,,0.01,Wunderground v.1.15,2013-11-26 07:25:00,
2013-11-26 02:30:00,32.2,28.8,30.21,NW,320,0.0,0.0,87,0.00,,,0.01,Wunderground v.1.15,2013-11-26 07:30:00,
2013-11-26 02:35:00,32.2,28.8,30.22,NW,320,0.0,0.0,87,0.00,,,0.01,Wunderground v.1.15,2013-11-26 07:35:00,
2013-11-26 02:40:00,32.2,28.8,30.22,NW,320,0.0,0.0,87,0.00,,,0.01,Wunderground v.1.15,2013-11-26 07:40:00,
2013-11-26 02:45:00,32.2,28.8,30.21,NW,320,0.0,0.0,87,0.00,,,0.01,Wunderground v.1.15,2013-11-26 07:45:00,
2013-11-26 02:50:00,32.2,28.8,30.21,NW,320,0.0,0.0,87,0.00,,,0.01,Wunderground v.1.15,2013-11-26 07:50:00,
2013-11-26 03:00:00,32.3,29.1,30.21,NW,320,0.0,0.0,88,0.00,,,0.01,Wunderground v.1.15,2013-11-26 08:00:00,
2013-11-26 03:05:00,32.2,29.3,30.21,NW,320,0.0,0.0,89,0.00,,,0.01,Wunderground v.1.15,2013-11-26 08:05:00,
2013-11-26 03:10:00,32.2,29.0,30.20,NW,320,0.0,0.0,88,0.00,,,0.01,Wunderground v.1.15,2013-11-26 08:10:00,
2013-11-26 03:20:00,32.1,29.2,30.20,NW,320,0.0,0.0,89,0.00,,,0.01,Wunderground v.1.15,2013-11-26 08:20:00,
2013-11-26 03:25:00,32.1,29.2,30.20,NW,320,0.0,0.0,89,0.00,,,0.01,Wunderground v.1.15,2013-11-26 08:25:00,
2013-11-26 03:30:00,32.1,29.2,30.19,NW,320,0.0,0.0,89,0.00,,,0.01,Wunderground v.1.15,2013-11-26 08:30:00,
2013-11-26 03:35:00,32.1,29.2,30.20,NW,320,0.0,0.0,89,0.00,,,0.01,Wunderground v.1.15,2013-11-26 08:35:00,
2013-11-26 03:40:00,32.1,29.5,30.20,NW,320,0.0,0.0,90,0.00,,,0.01,Wunderground v.1.15,2013-11-26 08:40:00,
2013-11-26 03:50:00,32.1,29.5,30.20,NW,320,0.0,0.0,90,0.00,,,0.01,Wunderground v.1.15,2013-11-26 08:50:00,
2013-11-26 03:55:00,32.1,29.5,30.19,NW,320,0.0,0.0,90,0.00,,,0.01,Wunderground v.1.15,2013-11-26 08:55:00,
2013-11-26 04:00:00,32.1,29.5,30.20,NW,320,0.0,0.0,90,0.00,,,0.01,Wunderground v.1.15,2013-11-26 09:00:00,
2013-11-26 04:05:00,32.1,29.5,30.19,NW,321,0.0,0.0,90,0.00,,,0.01,Wunderground v.1.15,2013-11-26 09:05:00,
2013-11-26 04:10:00,32.1,29.5,30.20,NW,321,0.0,0.0,90,0.00,,,0.01,Wunderground v.1.15,2013-11-26 09:10:00,
2013-11-26 04:15:00,32.1,29.8,30.19,NW,321,0.0,0.0,91,0.00,,,0.01,Wunderground v.1.15,2013-11-26 09:15:00,
2013-11-26 04:20:00,32.2,29.9,30.19,NW,321,0.0,0.0,91,0.00,,,0.01,Wunderground v.1.15,2013-11-26 09:20:00,
2013-11-26 04:30:00,32.3,30.0,30.20,NW,318,0.0,0.0,91,0.00,,,0.01,Wunderground v.1.15,2013-11-26 09:30:00,
2013-11-26 04:35:00,32.3,30.0,30.19,NW,318,0.0,0.0,91,0.00,,,0.01,Wunderground v.1.15,2013-11-26 09:35:00,
2013-11-26 04:40:00,32.3,30.0,30.18,NW,318,0.0,0.0,91,0.00,,,0.01,Wunderground v.1.15,2013-11-26 09:40:00,
2013-11-26 04:45:00,32.3,30.0,30.18,NW,318,0.0,0.0,91,0.00,,,0.01,Wunderground v.1.15,2013-11-26 09:45:00,
2013-11-26 04:55:00,32.3,30.0,30.17,NW,318,0.0,0.0,91,0.00,,,0.01,Wunderground v.1.15,2013-11-26 09:55:00,
2013-11-26 05:00:00,32.3,30.2,30.17,NW,318,0.0,0.0,92,0.00,,,0.01,Wunderground v.1.15,2013-11-26 10:00:00,
2013-11-26 05:05:00,32.3,30.2,30.17,NW,318,0.0,0.0,92,0.00,,,0.01,Wunderground v.1.15,2013-11-26 10:05:00,
2013-11-26 05:15:00,32.3,30.2,30.16,NW,318,0.0,0.0,92,0.00,,,0.01,Wunderground v.1.15,2013-11-26 10:15:00,
2013-11-26 05:20:00,32.3,30.2,30.16,NW,318,0.0,0.0,92,0.00,,,0.01,Wunderground v.1.15,2013-11-26 10:20:00,
2013-11-26 05:25:00,32.3,30.2,30.16,NW,318,0.0,0.0,92,0.00,,,0.01,Wunderground v.1.15,2013-11-26 10:25:00,
2013-11-26 05:30:00,32.3,30.2,30.16,NW,318,0.0,0.0,92,0.00,,,0.01,Wunderground v.1.15,2013-11-26 10:30:00,
2013-11-26 05:35:00,32.2,30.1,30.16,NW,318,0.0,0.0,92,0.00,,,0.01,Wunderground v.1.15,2013-11-26 10:35:00,
2013-11-26 05:40:00,32.3,30.2,30.16,NW,318,0.0,0.0,92,0.00,,,0.01,Wunderground v.1.15,2013-11-26 10:40:00,
2013-11-26 05:50:00,32.3,30.2,30.15,NW,318,0.0,0.0,92,0.00,,,0.01,Wunderground v.1.15,2013-11-26 10:50:00,
2013-11-26 05:55:00,32.3,30.2,30.16,NW,318,0.0,0.0,92,0.00,,,0.01,Wunderground v.1.15,2013-11-26 10:55:00,
2013-11-26 06:00:00,32.4,30.6,30.15,NW,318,0.0,0.0,93,0.00,,,0.01,Wunderground v.1.15,2013-11-26 11:00:00,
2013-11-26 06:05:00,32.4,30.6,30.15,NW,318,0.0,0.0,93,0.00,,,0.01,Wunderground v.1.15,2013-11-26 11:05:00,
2013-11-26 06:10:00,32.4,30.6,30.15,NW,318,0.0,0.0,93,0.00,,,0.01,Wunderground v.1.15,2013-11-26 11:10:00,
2013-11-26 06:20:00,32.4,30.6,30.14,NW,318,0.0,0.0,93,0.00,,,0.01,Wunderground v.1.15,2013-11-26 11:20:00,
2013-11-26 06:25:00,32.4,30.6,30.15,NW,318,0.0,0.0,93,0.00,,,0.01,Wunderground v.1.15,2013-11-26 11:25:00,
2013-11-26 06:30:00,32.5,30.7,30.14,NW,313,0.0,0.0,93,0.00,,,0.01,Wunderground v.1.15,2013-11-26 11:30:00,
2013-11-26 06:35:00,32.5,30.7,30.14,NW,313,0.0,0.0,93,0.00,,,0.01,Wunderground v.1.15,2013-11-26 11:35:00,
2013-11-26 06:40:00,32.6,30.8,30.14,NW,313,0.0,0.0,93,0.00,,,0.01,Wunderground v.1.15,2013-11-26 11:40:00,
2013-11-26 06:45:00,32.6,30.8,30.14,NW,313,0.0,0.0,93,0.00,,,0.01,Wunderground v.1.15,2013-11-26 11:45:00,
2013-11-26 06:55:00,32.6,30.8,30.13,NW,313,0.0,0.0,93,0.00,,,0.01,Wunderground v.1.15,2013-11-26 11:55:00,
2013-11-26 07:00:00,32.6,30.8,30.13,NW,313,0.0,0.0,93,0.00,,,0.01,Wunderground v.1.15,2013-11-26 12:00:00,
2013-11-26 07:05:00,32.7,30.9,30.12,NW,313,0.0,0.0,93,0.00,,,0.01,Wunderground v.1.15,2013-11-26 12:05:00,
2013-11-26 07:10:00,32.7,30.9,30.12,NW,313,0.0,0.0,93,0.00,,,0.01,Wunderground v.1.15,2013-11-26 12:10:00,
2013-11-26 07:15:00,32.7,30.9,30.11,NW,313,0.0,0.0,93,0.00,,,0.01,Wunderground v.1.15,2013-11-26 12:15:00,
2013-11-26 07:20:00,32.7,30.9,30.11,NW,313,0.0,0.0,93,0.00,,,0.01,Wunderground v.1.15,2013-11-26 12:20:00,
2013-11-26 07:30:00,32.8,31.0,30.11,NW,313,0.0,0.0,93,0.00,,,0.01,Wunderground v.1.15,2013-11-26 12:30:00,
2013-11-26 07:35:00,32.8,31.0,30.11,NW,313,0.0,0.0,93,0.00,,,0.01,Wunderground v.1.15,2013-11-26 12:35:00,
2013-11-26 07:40:00,32.9,31.1,30.11,NW,313,0.0,0.0,93,0.00,,,0.01,Wunderground v.1.15,2013-11-26 12:40:00,
2013-11-26 07:45:00,32.9,31.4,30.11,NW,313,0.0,0.0,94,0.00,,,0.02,Wunderground v.1.15,2013-11-26 12:45:00,
2013-11-26 07:50:00,32.9,31.4,30.11,NW,313,0.0,0.0,94,0.12,,,0.02,Wunderground v.1.15,2013-11-26 12:50:00,
2013-11-26 07:55:00,32.9,31.1,30.11,NW,313,0.0,0.0,93,0.19,,,0.04,Wunderground v.1.15,2013-11-26 12:55:00,
2013-11-26 08:00:00,33.1,31.6,30.10,NW,313,0.0,0.0,94,0.08,,,0.05,Wunderground v.1.15,2013-11-26 13:00:00,
2013-11-26 08:10:00,33.3,31.8,30.09,NW,313,0.0,0.0,94,0.31,,,0.08,Wunderground v.1.15,2013-11-26 13:10:00,
2013-11-26 08:15:00,33.2,31.7,30.09,NW,313,0.0,0.0,94,0.11,,,0.08,Wunderground v.1.15,2013-11-26 13:15:00,
2013-11-26 08:20:00,33.2,31.7,30.09,NW,313,0.0,0.0,94,0.29,,,0.10,Wunderground v.1.15,2013-11-26 13:20:00,
2013-11-26 08:30:00,33.1,31.3,30.10,NW,313,0.0,0.0,93,0.27,,,0.12,Wunderground v.1.15,2013-11-26 13:30:00,
2013-11-26 08:35:00,33.1,31.3,30.09,NW,313,0.0,0.0,93,0.24,,,0.14,Wunderground v.1.15,2013-11-26 13:35:00,
2013-11-26 08:40:00,33.1,31.6,30.08,NW,313,0.0,0.0,94,0.29,,,0.16,Wunderground v.1.15,2013-11-26 13:40:00,
2013-11-26 08:45:00,33.1,31.6,30.08,NW,313,0.0,0.0,94,0.12,,,0.17,Wunderground v.1.15,2013-11-26 13:45:00,
2013-11-26 08:50:00,33.1,31.6,30.08,NW,313,0.0,0.0,94,0.17,,,0.18,Wunderground v.1.15,2013-11-26 13:50:00,
2013-11-26 08:55:00,33.2,31.7,30.08,SW,223,1.0,1.0,94,0.08,,,0.19,Wunderground v.1.15,2013-11-26 13:55:00,
2013-11-26 09:00:00,33.3,31.8,30.07,SW,223,2.0,4.0,94,0.14,,,0.20,Wunderground v.1.15,2013-11-26 14:00:00,
2013-11-26 09:10:00,33.3,31.8,30.06,SW,223,2.0,2.0,94,0.10,,,0.22,Wunderground v.1.15,2013-11-26 14:10:00,
2013-11-26 09:15:00,33.3,31.8,30.07,SW,223,1.0,2.0,94,0.23,,,0.24,Wunderground v.1.15,2013-11-26 14:15:00,
2013-11-26 09:20:00,33.3,31.8,30.07,SW,223,0.0,0.0,94,0.10,,,0.25,Wunderground v.1.15,2013-11-26 14:20:00,
2013-11-26 09:25:00,33.3,31.8,30.06,SW,223,1.0,1.0,94,0.17,,,0.26,Wunderground v.1.15,2013-11-26 14:25:00,
2013-11-26 09:35:00,33.4,31.9,30.06,SW,223,0.0,0.0,94,0.13,,,0.28,Wunderground v.1.15,2013-11-26 14:35:00,
2013-11-26 09:40:00,33.5,32.0,30.05,SW,223,0.0,0.0,94,0.08,,,0.29,Wunderground v.1.15,2013-11-26 14:40:00,
2013-11-26 09:45:00,33.5,32.0,30.04,SW,223,0.0,0.0,94,0.12,,,0.30,Wunderground v.1.15,2013-11-26 14:45:00,
2013-11-26 09:50:00,33.5,32.0,30.04,SW,223,0.0,0.0,94,0.10,,,0.31,Wunderground v.1.15,2013-11-26 14:50:00,
2013-11-26 09:55:00,33.5,32.0,30.04,SW,223,0.0,0.0,94,0.19,,,0.32,Wunderground v.1.15,2013-11-26 14:55:00,
2013-11-26 10:00:00,33.6,32.1,30.04,SW,223,0.0,0.0,94,0.10,,,0.33,Wunderground v.1.15,2013-11-26 15:00:00,
2013-11-26 10:10:00,33.9,32.4,30.02,SW,223,0.0,0.0,94,0.15,,,0.36,Wunderground v.1.15,2013-11-26 15:10:00,
2013-11-26 10:15:00,33.8,32.3,30.01,SW,223,0.0,0.0,94,0.15,,,0.37,Wunderground v.1.15,2013-11-26 15:15:00,
2013-11-26 10:20:00,33.8,32.3,30.01,SW,223,0.0,0.0,94,0.17,,,0.38,Wunderground v.1.15,2013-11-26 15:20:00,
2013-11-26 10:25:00,33.8,32.3,30.01,SW,223,0.0,0.0,94,0.24,,,0.40,Wunderground v.1.15,2013-11-26 15:25:00,
2013-11-26 10:30:00,33.7,32.2,30.00,SW,223,0.0,0.0,94,0.17,,,0.41,Wunderground v.1.15,2013-11-26 15:30:00,
2013-11-26 10:35:00,33.8,32.3,30.01,SW,223,0.0,0.0,94,0.19,,,0.43,Wunderground v.1.15,2013-11-26 15:35:00,
2013-11-26 10:45:00,33.9,32.4,30.00,SW,223,0.0,0.0,94,0.11,,,0.45,Wunderground v.1.15,2013-11-26 15:45:00,
2013-11-26 10:50:00,34.0,32.5,30.00,SW,223,0.0,0.0,94,0.14,,,0.46,Wunderground v.1.15,2013-11-26 15:50:00,
2013-11-26 10:55:00,34.0,32.5,29.99,SW,223,0.0,0.0,94,0.18,,,0.48,Wunderground v.1.15,2013-11-26 15:55:00,
2013-11-26 11:00:00,34.1,32.6,29.99,SW,223,0.0,0.0,94,0.11,,,0.49,Wunderground v.1.15,2013-11-26 16:00:00,
2013-11-26 11:10:00,34.4,32.9,29.98,SW,223,0.0,0.0,94,0.12,,,0.51,Wunderground v.1.15,2013-11-26 16:10:00,
2013-11-26 11:15:00,34.5,33.0,29.98,SW,223,0.0,0.0,94,0.17,,,0.52,Wunderground v.1.15,2013-11-26 16:15:00,
2013-11-26 11:20:00,34.6,33.1,29.97,SW,223,0.0,0.0,94,0.26,,,0.54,Wunderground v.1.15,2013-11-26 16:20:00,
2013-11-26 11:25:00,34.7,33.2,29.97,SW,223,0.0,0.0,94,0.22,,,0.56,Wunderground v.1.15,2013-11-26 16:25:00,
2013-11-26 11:30:00,35.0,33.7,29.96,SW,223,0.0,0.0,95,0.18,,,0.57,Wunderground v.1.15,2013-11-26 16:30:00,
2013-11-26 11:35:00,35.3,34.0,29.95,SW,223,0.0,0.0,95,0.18,,,0.59,Wunderground v.1.15,2013-11-26 16:35:00,
2013-11-26 11:40:00,35.4,34.1,29.95,SW,223,0.0,0.0,95,0.19,,,0.60,Wunderground v.1.15,2013-11-26 16:40:00,
2013-11-26 11:50:00,35.6,34.3,29.94,SW,223,0.0,0.0,95,0.27,,,0.64,Wunderground v.1.15,2013-11-26 16:50:00,
2013-11-26 11:55:00,35.7,34.4,29.94,SW,223,0.0,0.0,95,0.24,,,0.66,Wunderground v.1.15,2013-11-26 16:55:00,
2013-11-26 12:05:00,36.1,34.8,29.94,ESE,117,0.0,0.0,95,0.15,,,0.68,Wunderground v.1.15,2013-11-26 17:05:00,
2013-11-26 12:10:00,36.4,35.1,29.93,ESE,117,0.0,0.0,95,0.17,,,0.70,Wunderground v.1.15,2013-11-26 17:10:00,
2013-11-26 12:20:00,36.6,35.3,29.93,ESE,117,0.0,0.0,95,0.17,,,0.72,Wunderground v.1.15,2013-11-26 17:20:00,
2013-11-26 12:25:00,36.6,35.3,29.91,ESE,117,0.0,0.0,95,0.23,,,0.74,Wunderground v.1.15,2013-11-26 17:25:00,
2013-11-26 12:30:00,36.5,35.2,29.91,ESE,117,0.0,0.0,95,0.15,,,0.75,Wunderground v.1.15,2013-11-26 17:30:00,
2013-11-26 12:35:00,36.6,35.3,29.91,ESE,117,0.0,0.0,95,0.16,,,0.77,Wunderground v.1.15,2013-11-26 17:35:00,
2013-11-26 12:40:00,36.8,35.5,29.91,ESE,117,0.0,0.0,95,0.20,,,0.78,Wunderground v.1.15,2013-11-26 17:40:00,
2013-11-26 12:45:00,36.9,35.6,29.91,ESE,117,0.0,0.0,95,0.20,,,0.80,Wunderground v.1.15,2013-11-26 17:45:00,
2013-11-26 12:55:00,37.2,35.9,29.89,ESE,117,0.0,0.0,95,0.13,,,0.83,Wunderground v.1.15,2013-11-26 17:55:00,
2013-11-26 13:00:00,37.3,36.0,29.88,ESE,117,0.0,0.0,95,0.18,,,0.84,Wunderground v.1.15,2013-11-26 18:00:00,
2013-11-26 13:10:00,37.5,36.2,29.88,ESE,117,0.0,0.0,95,0.10,,,0.85,Wunderground v.1.15,2013-11-26 18:10:00,
2013-11-26 13:15:00,37.7,36.4,29.88,SE,128,0.0,0.0,95,0.10,,,0.86,Wunderground v.1.15,2013-11-26 18:15:00,
2013-11-26 13:20:00,37.8,36.5,29.87,SE,128,0.0,0.0,95,0.07,,,0.87,Wunderground v.1.15,2013-11-26 18:20:00,
2013-11-26 13:25:00,37.9,36.6,29.86,SE,128,0.0,0.0,95,0.20,,,0.89,Wunderground v.1.15,2013-11-26 18:25:00,
2013-11-26 13:30:00,38.0,36.7,29.85,SE,128,0.0,0.0,95,0.14,,,0.90,Wunderground v.1.15,2013-11-26 18:30:00,
2013-11-26 13:35:00,38.0,36.7,29.86,SE,128,0.0,0.0,95,0.13,,,0.91,Wunderground v.1.15,2013-11-26 18:35:00,
2013-11-26 13:45:00,38.1,36.8,29.85,SE,128,0.0,0.0,95,0.19,,,0.94,Wunderground v.1.15,2013-11-26 18:45:00,
2013-11-26 13:50:00,38.2,36.9,29.84,SE,128,0.0,0.0,95,0.21,,,0.96,Wunderground v.1.15,2013-11-26 18:50:00,
2013-11-26 13:55:00,38.3,37.0,29.83,SE,128,0.0,0.0,95,0.11,,,0.96,Wunderground v.1.15,2013-11-26 18:55:00,
2013-11-26 14:00:00,38.4,37.1,29.83,SE,128,0.0,0.0,95,0.21,,,0.98,Wunderground v.1.15,2013-11-26 19:00:00,
2013-11-26 14:10:00,38.4,37.1,29.83,SE,128,0.0,0.0,95,0.14,,,1.01,Wunderground v.1.15,2013-11-26 19:10:00,
2013-11-26 14:15:00,38.5,37.2,29.83,SE,128,0.0,0.0,95,0.11,,,1.01,Wunderground v.1.15,2013-11-26 19:15:00,
2013-11-26 14:20:00,38.6,37.3,29.82,SE,128,0.0,0.0,95,0.11,,,1.02,Wunderground v.1.15,2013-11-26 19:20:00,
2013-11-26 14:25:00,38.6,37.3,29.81,SSE,153,0.0,0.0,95,0.25,,,1.04,Wunderground v.1.15,2013-11-26 19:25:00,
2013-11-26 14:35:00,38.6,37.3,29.81,SSE,165,0.0,0.0,95,0.14,,,1.07,Wunderground v.1.15,2013-11-26 19:35:00,
2013-11-26 14:40:00,38.6,37.3,29.80,SSE,165,0.0,0.0,95,0.14,,,1.08,Wunderground v.1.15,2013-11-26 19:40:00,
2013-11-26 14:45:00,38.6,37.3,29.79,SSE,165,0.0,0.0,95,0.11,,,1.09,Wunderground v.1.15,2013-11-26 19:45:00,
2013-11-26 14:50:00,38.6,37.3,29.79,SSW,213,0.0,0.0,95,0.11,,,1.10,Wunderground v.1.15,2013-11-26 19:50:00,
2013-11-26 14:55:00,38.6,37.3,29.79,SSW,207,0.0,0.0,95,0.07,,,1.11,Wunderground v.1.15,2013-11-26 19:55:00,
2013-11-26 15:00:00,38.6,37.3,29.78,SSE,167,0.0,0.0,95,0.07,,,1.11,Wunderground v.1.15,2013-11-26 20:00:00,
2013-11-26 15:10:00,38.8,37.5,29.77,East,98,0.0,0.0,95,0.62,,,1.16,Wunderground v.1.15,2013-11-26 20:10:00,
2013-11-26 15:15:00,38.9,37.6,29.77,East,98,0.0,0.0,95,0.24,,,1.18,Wunderground v.1.15,2013-11-26 20:15:00,
2013-11-26 15:20:00,38.9,37.6,29.77,East,98,0.0,0.0,95,0.12,,,1.19,Wunderground v.1.15,2013-11-26 20:20:00,
2013-11-26 15:25:00,38.9,37.6,29.77,East,98,0.0,0.0,95,0.16,,,1.20,Wunderground v.1.15,2013-11-26 20:25:00,
2013-11-26 15:30:00,38.9,37.6,29.76,East,98,0.0,0.0,95,0.18,,,1.22,Wunderground v.1.15,2013-11-26 20:30:00,
2013-11-26 15:35:00,38.8,37.5,29.75,SSW,201,0.0,0.0,95,0.17,,,1.23,Wunderground v.1.15,2013-11-26 20:35:00,
2013-11-26 15:45:00,38.7,37.4,29.77,SSW,205,0.0,0.0,95,0.26,,,1.26,Wunderground v.1.15,2013-11-26 20:45:00,
2013-11-26 15:50:00,38.7,37.4,29.76,SSW,205,0.0,0.0,95,0.24,,,1.27,Wunderground v.1.15,2013-11-26 20:50:00,
2013-11-26 15:55:00,38.8,37.5,29.76,SSW,205,0.0,0.0,95,0.34,,,1.30,Wunderground v.1.15,2013-11-26 20:55:00,
2013-11-26 16:00:00,38.9,37.6,29.75,SSW,205,0.0,0.0,95,0.14,,,1.31,Wunderground v.1.15,2013-11-26 21:00:00,
2013-11-26 16:10:00,38.9,37.6,29.73,SW,214,0.0,0.0,95,0.15,,,1.35,Wunderground v.1.15,2013-11-26 21:10:00,
2013-11-26 16:15:00,38.9,37.6,29.72,SSW,211,1.0,1.0,95,0.11,,,1.35,Wunderground v.1.15,2013-11-26 21:15:00,
2013-11-26 16:20:00,38.9,37.6,29.73,SSW,205,3.0,5.0,95,0.08,,,1.36,Wunderground v.1.15,2013-11-26 21:20:00,
2013-11-26 16:25:00,38.9,37.6,29.72,SSW,209,5.0,5.0,95,0.08,,,1.36,Wunderground v.1.15,2013-11-26 21:25:00,
2013-11-26 16:30:00,38.8,37.5,29.71,SSW,206,4.0,4.0,95,0.05,,,1.36,Wunderground v.1.15,2013-11-26 21:30:00,
2013-11-26 16:35:00,38.8,37.5,29.70,SSW,211,4.0,5.0,95,0.00,,,1.36,Wunderground v.1.15,2013-11-26 21:35:00,
2013-11-26 16:40:00,38.7,37.4,29.69,SSW,211,5.0,5.0,95,0.00,,,1.36,Wunderground v.1.15,2013-11-26 21:40:00,
2013-11-26 16:50:00,38.7,37.4,29.69,SSW,211,2.0,2.0,95,0.10,,,1.38,Wunderground v.1.15,2013-11-26 21:50:00,
2013-11-26 16:55:00,38.8,37.5,29.69,SSW,211,1.0,2.0,95,0.14,,,1.39,Wunderground v.1.15,2013-11-26 21:55:00,
2013-11-26 17:00:00,38.9,37.6,29.69,SSW,211,0.0,0.0,95,0.18,,,1.41,Wunderground v.1.15,2013-11-26 22:00:00,
2013-11-26 17:10:00,39.1,37.8,29.67,SSW,211,0.0,0.0,95,0.22,,,1.44,Wunderground v.1.15,2013-11-26 22:10:00,
2013-11-26 17:15:00,39.4,38.1,29.67,SSE,159,0.0,0.0,95,0.15,,,1.45,Wunderground v.1.15,2013-11-26 22:15:00,
2013-11-26 17:25:00,39.7,38.4,29.69,NNW,327,0.0,2.0,95,0.23,,,1.49,Wunderground v.1.15,2013-11-26 22:25:00,
2013-11-26 17:30:00,39.8,38.5,29.70,NNW,327,1.0,1.0,95,0.12,,,1.50,Wunderground v.1.15,2013-11-26 22:30:00,
2013-11-26 17:35:00,39.7,38.4,29.69,NNW,327,1.0,1.0,95,0.20,,,1.52,Wunderground v.1.15,2013-11-26 22:35:00,
2013-11-26 17:40:00,39.7,38.4,29.69,NNW,327,0.0,0.0,95,0.09,,,1.53,Wunderground v.1.15,2013-11-26 22:40:00,
2013-11-26 17:45:00,39.7,38.4,29.69,NNW,327,0.0,0.0,95,0.15,,,1.54,Wunderground v.1.15,2013-11-26 22:45:00,
2013-11-26 17:55:00,39.7,38.4,29.68,NW,315,1.0,2.0,95,0.06,,,1.55,Wunderground v.1.15,2013-11-26 22:55:00,
2013-11-26 18:00:00,39.7,38.4,29.68,NW,315,1.0,1.0,95,0.06,,,1.55,Wunderground v.1.15,2013-11-26 23:00:00,
2013-11-26 18:05:00,39.8,38.5,29.68,NW,315,0.0,8.0,95,0.07,,,1.56,Wunderground v.1.15,2013-11-26 23:05:00,
2013-11-26 18:10:00,39.9,38.6,29.67,NW,315,0.0,8.0,95,0.10,,,1.57,Wunderground v.1.15,2013-11-26 23:10:00,
2013-11-26 18:15:00,40.0,38.7,29.68,NW,313,1.0,8.0,95,0.09,,,1.57,Wunderground v.1.15,2013-11-26 23:15:00,
2013-11-26 18:20:00,40.0,38.7,29.67,NW,313,1.0,1.0,95,0.05,,,1.57,Wunderground v.1.15,2013-11-26 23:20:00,
2013-11-26 18:25:00,40.0,38.7,29.67,NW,313,0.0,8.0,95,0.00,,,1.57,Wunderground v.1.15,2013-11-26 23:25:00,
2013-11-26 18:35:00,40.0,38.7,29.67,NW,313,0.0,8.0,95,0.00,,,1.58,Wunderground v.1.15,2013-11-26 23:35:00,
2013-11-26 18:40:00,39.9,38.6,29.66,NW,313,0.0,8.0,95,0.00,,,1.58,Wunderground v.1.15,2013-11-26 23:40:00,
2013-11-26 18:45:00,40.0,38.7,29.67,NW,313,0.0,8.0,95,0.00,,,1.59,Wunderground v.1.15,2013-11-26 23:45:00,
2013-11-26 18:50:00,40.0,38.7,29.66,NW,313,0.0,8.0,95,0.00,,,1.59,Wunderground v.1.15,2013-11-26 23:50:00,
2013-11-26 18:55:00,40.0,38.7,29.66,NW,313,0.0,8.0,95,0.00,,,1.59,Wunderground v.1.15,2013-11-26 23:55:00,
2013-11-26 19:00:00,40.0,38.7,29.66,NW,313,0.0,8.0,95,0.00,,,1.59,Wunderground v.1.15,2013-11-27 00:00:00,
2013-11-26 19:05:00,40.0,38.7,29.65,NW,313,0.0,8.0,95,0.00,,,1.59,Wunderground v.1.15,2013-11-27 00:05:00,
2013-11-26 19:15:00,40.0,38.7,29.65,NW,313,0.0,8.0,95,0.00,,,1.60,Wunderground v.1.15,2013-11-27 00:15:00,
2013-11-26 19:20:00,40.0,38.7,29.65,NW,313,0.0,8.0,95,0.00,,,1.60,Wunderground v.1.15,2013-11-27 00:20:00,
2013-11-26 19:25:00,40.0,38.7,29.65,NW,313,0.0,8.0,95,0.00,,,1.60,Wunderground v.1.15,2013-11-27 00:25:00,
2013-11-26 19:30:00,40.0,38.7,29.65,NW,313,0.0,8.0,95,0.00,,,1.60,Wunderground v.1.15,2013-11-27 00:30:00,
2013-11-26 19:35:00,40.1,38.8,29.65,NW,313,0.0,8.0,95,0.00,,,1.60,Wunderground v.1.15,2013-11-27 00:35:00,
2013-11-26 19:40:00,40.0,38.7,29.64,NW,313,0.0,8.0,95,0.00,,,1.60,Wunderground v.1.15,2013-11-27 00:40:00,
2013-11-26 19:45:00,40.0,38.7,29.64,NW,313,0.0,8.0,95,0.00,,,1.60,Wunderground v.1.15,2013-11-27 00:45:00,
2013-11-26 19:55:00,40.0,38.7,29.64,NW,313,0.0,8.0,95,0.00,,,1.60,Wunderground v.1.15,2013-11-27 00:55:00,
2013-11-26 20:00:00,40.0,38.7,29.64,NW,313,0.0,8.0,95,0.00,,,1.60,Wunderground v.1.15,2013-11-27 01:00:00,
2013-11-26 20:05:00,40.0,38.7,29.64,NW,313,1.0,8.0,95,0.00,,,1.60,Wunderground v.1.15,2013-11-27 01:05:00,
2013-11-26 20:10:00,39.9,38.6,29.63,NW,313,1.0,1.0,95,0.00,,,1.60,Wunderground v.1.15,2013-11-27 01:10:00,
2013-11-26 20:15:00,39.9,38.6,29.63,NW,313,1.0,8.0,95,0.00,,,1.60,Wunderground v.1.15,2013-11-27 01:15:00,
2013-11-26 20:20:00,39.9,38.6,29.63,NW,313,0.0,8.0,95,0.00,,,1.60,Wunderground v.1.15,2013-11-27 01:20:00,
2013-11-26 20:25:00,40.0,38.7,29.63,NW,313,0.0,8.0,95,0.00,,,1.61,Wunderground v.1.15,2013-11-27 01:25:00,
2013-11-26 20:35:00,39.9,38.6,29.62,NW,313,0.0,8.0,95,0.00,,,1.61,Wunderground v.1.15,2013-11-27 01:35:00,
2013-11-26 20:40:00,39.9,38.6,29.62,NW,313,0.0,8.0,95,0.05,,,1.62,Wunderground v.1.15,2013-11-27 01:40:00,
2013-11-26 20:45:00,39.9,38.6,29.60,NW,313,0.0,8.0,95,0.08,,,1.63,Wunderground v.1.15,2013-11-27 01:45:00,
2013-11-26 20:50:00,40.0,38.7,29.61,NW,313,0.0,8.0,95,0.11,,,1.64,Wunderground v.1.15,2013-11-27 01:50:00,
2013-11-26 20:55:00,40.0,38.7,29.60,NW,313,0.0,8.0,95,0.09,,,1.64,Wunderground v.1.15,2013-11-27 01:55:00,
2013-11-26 21:00:00,40.0,38.7,29.60,NW,313,0.0,8.0,95,0.05,,,1.64,Wunderground v.1.15,2013-11-27 02:00:00,
2013-11-26 21:10:00,40.0,38.7,29.59,NW,313,0.0,8.0,95,0.00,,,1.65,Wunderground v.1.15,2013-11-27 02:10:00,
2013-11-26 21:15:00,40.1,38.8,29.59,NW,313,0.0,8.0,95,0.00,,,1.65,Wunderground v.1.15,2013-11-27 02:15:00,
2013-11-26 21:20:00,40.1,38.8,29.59,NW,313,0.0,8.0,95,0.06,,,1.66,Wunderground v.1.15,2013-11-27 02:20:00,
2013-11-26 21:25:00,40.2,38.9,29.59,NW,313,0.0,8.0,95,0.06,,,1.66,Wunderground v.1.15,2013-11-27 02:25:00,
2013-11-26 21:30:00,40.2,38.9,29.58,NW,313,0.0,8.0,95,0.05,,,1.66,Wunderground v.1.15,2013-11-27 02:30:00,
2013-11-26 21:40:00,40.3,39.0,29.58,NW,313,0.0,8.0,95,0.31,,,1.68,Wunderground v.1.15,2013-11-27 02:40:00,
2013-11-26 21:45:00,40.3,39.0,29.57,NW,313,0.0,8.0,95,0.10,,,1.68,Wunderground v.1.15,2013-11-27 02:45:00,
2013-11-26 21:50:00,40.3,39.0,29.58,NW,313,0.0,8.0,95,0.05,,,1.68,Wunderground v.1.15,2013-11-27 02:50:00,
2013-11-26 21:55:00,40.4,39.1,29.58,NW,313,0.0,8.0,95,0.05,,,1.69,Wunderground v.1.15,2013-11-27 02:55:00,
2013-11-26 22:00:00,40.4,39.1,29.58,NW,313,0.0,8.0,95,0.05,,,1.69,Wunderground v.1.15,2013-11-27 03:00:00,
2013-11-26 22:05:00,40.5,39.4,29.58,NW,313,1.0,8.0,96,0.05,,,1.69,Wunderground v.1.15,2013-11-27 03:05:00,
2013-11-26 22:15:00,40.5,39.2,29.58,NW,313,0.0,8.0,95,0.00,,,1.70,Wunderground v.1.15,2013-11-27 03:15:00,
2013-11-26 22:20:00,40.6,39.5,29.58,NW,313,0.0,8.0,96,0.00,,,1.70,Wunderground v.1.15,2013-11-27 03:20:00,
2013-11-26 22:25:00,40.6,39.5,29.58,NW,313,0.0,8.0,96,0.00,,,1.70,Wunderground v.1.15,2013-11-27 03:25:00,
2013-11-26 22:30:00,40.7,39.6,29.57,NW,313,0.0,8.0,96,0.25,,,1.72,Wunderground v.1.15,2013-11-27 03:30:00,
2013-11-26 22:35:00,40.7,39.6,29.57,NW,313,0.0,8.0,96,0.08,,,1.72,Wunderground v.1.15,2013-11-27 03:35:00,
2013-11-26 22:45:00,40.8,39.7,29.57,NW,313,0.0,8.0,96,0.00,,,1.72,Wunderground v.1.15,2013-11-27 03:45:00,
2013-11-26 22:50:00,40.7,39.6,29.57,NW,313,0.0,8.0,96,0.00,,,1.72,Wunderground v.1.15,2013-11-27 03:50:00,
2013-11-26 22:55:00,40.7,39.4,29.58,NW,313,0.0,8.0,95,0.00,,,1.72,Wunderground v.1.15,2013-11-27 03:55:00,
2013-11-26 23:00:00,40.7,39.4,29.58,NW,313,0.0,8.0,95,0.00,,,1.73,Wunderground v.1.15,2013-11-27 04:00:00,
2013-11-26 23:05:00,40.8,39.7,29.58,NW,313,0.0,8.0,96,0.00,,,1.73,Wunderground v.1.15,2013-11-27 04:05:00,
2013-11-26 23:10:00,40.8,39.7,29.58,NW,313,0.0,8.0,96,0.06,,,1.74,Wunderground v.1.15,2013-11-27 04:10:00,
2013-11-26 23:20:00,40.9,39.6,29.58,NW,313,0.0,8.0,95,0.04,,,1.74,Wunderground v.1.15,2013-11-27 04:20:00,
2013-11-26 23:25:00,41.0,39.7,29.58,NW,313,0.0,8.0,95,0.00,,,1.74,Wunderground v.1.15,2013-11-27 04:25:00,
2013-11-26 23:30:00,41.0,39.7,29.58,NW,313,0.0,8.0,95,0.00,,,1.74,Wunderground v.1.15,2013-11-27 04:30:00,
2013-11-26 23:35:00,41.1,39.8,29.57,NW,313,0.0,8.0,95,0.00,,,1.74,Wunderground v.1.15,2013-11-27 04:35:00,
2013-11-26 23:40:00,41.1,39.8,29.57,NW,313,0.0,8.0,95,0.00,,,1.75,Wunderground v.1.15,2013-11-27 04:40:00,
2013-11-26 23:45:00,41.1,39.8,29.56,NW,313,0.0,8.0,95,0.00,,,1.75,Wunderground v.1.15,2013-11-27 04:45:00,
2013-11-26 23:55:00,41.1,39.8,29.56,NW,313,0.0,8.0,95,0.00,,,1.75,Wunderground v.1.15,2013-11-27 04:55:00,